Stündliche Wetter 1-e Itkulovo

Heute, 25 Februar, Donnerstag

Zeit Temperatur Niederschläge Wind Luftdruck Luftfeuchtigkeit
00:00 -29°C° 0 mm 3 m/S 715 mmHg 91%
01:00 -29°C° 0 mm 3 m/S 716 mmHg 91%
02:00 -30°C° 0 mm 3 m/S 716 mmHg 92%
03:00 -30°C° 0 mm 3 m/S 716 mmHg 93%
04:00 -29°C° 0 mm 2 m/S 717 mmHg 93%
05:00 -30°C° 0 mm 2 m/S 718 mmHg 92%
06:00 -30°C° 0 mm 2 m/S 718 mmHg 92%
07:00 -31°C° 0 mm 2 m/S 719 mmHg 91%
08:00 -29°C° 0 mm 2 m/S 720 mmHg 87%
09:00 -23°C° 0 mm 1 m/S 720 mmHg 83%
10:00 -21°C° 0 mm 1 m/S 721 mmHg 79%
11:00 -19°C° 0 mm 1 m/S 722 mmHg 76%
12:00 -17°C° 0 mm 1 m/S 722 mmHg 73%
13:00 -15°C° 0 mm 1 m/S 722 mmHg 70%
14:00 -15°C° 0 mm 1 m/S 722 mmHg 74%
15:00 -18°C° 0 mm 2 m/S 722 mmHg 79%
16:00 -18°C° 0 mm 2 m/S 722 mmHg 83%
17:00 -20°C° 0 mm 2 m/S 722 mmHg 87%
18:00 -23°C° 0 mm 2 m/S 722 mmHg 91%
19:00 -26°C° 0 mm 2 m/S 722 mmHg 95%
20:00 -27°C° 0 mm 2 m/S 722 mmHg 91%
21:00 -28°C° 0 mm 2 m/S 721 mmHg 87%
22:00 -29°C° 0 mm 2 m/S 721 mmHg 83%
23:00 -27°C° 0 mm 1 m/S 721 mmHg 82%

Morgen, 26 Februar, Freitag

Zeit Temperatur Niederschläge Wind Luftdruck Luftfeuchtigkeit
00:00 -28°C° 0 mm 1 m/S 721 mmHg 80%
01:00 -28°C° 0 mm 1 m/S 720 mmHg 79%
02:00 -28°C° 0 mm 1 m/S 720 mmHg 80%
03:00 -28°C° 0 mm 1 m/S 720 mmHg 80%
04:00 -28°C° 0 mm 1 m/S 720 mmHg 81%
05:00 -27°C° 0 mm 1 m/S 720 mmHg 81%
06:00 -25°C° 0 mm 1 m/S 720 mmHg 82%
07:00 -24°C° 0 mm 1 m/S 719 mmHg 83%
08:00 -22°C° 0 mm 1 m/S 719 mmHg 87%
09:00 -24°C° 0 mm 2 m/S 719 mmHg 91%
10:00 -23°C° 0 mm 2 m/S 720 mmHg 95%
11:00 -23°C° 0 mm 3 m/S 719 mmHg 95%
12:00 -22°C° 0 mm 3 m/S 719 mmHg 95%
13:00 -21°C° 0 mm 3 m/S 718 mmHg 94%
14:00 -21°C° 0 mm 3 m/S 718 mmHg 95%
15:00 -22°C° 0 mm 4 m/S 717 mmHg 95%
16:00 -22°C° 0 mm 4 m/S 717 mmHg 95%
17:00 -23°C° 0 mm 4 m/S 717 mmHg 96%
18:00 -24°C° 0 mm 4 m/S 716 mmHg 96%
19:00 -24°C° 0 mm 4 m/S 716 mmHg 97%
20:00 -23°C° 0.1 mm 3 m/S 716 mmHg 97%
21:00 -23°C° 0.1 mm 3 m/S 715 mmHg 97%
22:00 -22°C° 0.1 mm 3 m/S 715 mmHg 97%
23:00 -22°C° 0.1 mm 3 m/S 714 mmHg 97%

übermorgen, 27 Februar, Samstag

Zeit Temperatur Niederschläge Wind Luftdruck Luftfeuchtigkeit
00:00 -23°C° 0.1 mm 4 m/S 714 mmHg 96%
01:00 -23°C° 0.1 mm 4 m/S 713 mmHg 96%
02:00 -23°C° 0.1 mm 4 m/S 713 mmHg 96%
03:00 -22°C° 0.1 mm 5 m/S 712 mmHg 96%
04:00 -22°C° 0.1 mm 5 m/S 711 mmHg 96%
05:00 -21°C° 0.3 mm 5 m/S 710 mmHg 95%
06:00 -22°C° 0.3 mm 6 m/S 709 mmHg 95%
07:00 -21°C° 0.3 mm 6 m/S 708 mmHg 95%
08:00 -20°C° 0.7 mm 6 m/S 708 mmHg 95%
09:00 -17°C° 0.7 mm 6 m/S 707 mmHg 94%
10:00 -17°C° 0.7 mm 7 m/S 707 mmHg 94%
11:00 -14°C° 0.5 mm 7 m/S 707 mmHg 94%
12:00 -11°C° 0.5 mm 6 m/S 706 mmHg 94%
13:00 -9°C° 0.5 mm 6 m/S 706 mmHg 94%
14:00 -8°C° 0.2 mm 6 m/S 705 mmHg 94%
15:00 -7°C° 0.2 mm 5 m/S 705 mmHg 94%
16:00 -6°C° 0.2 mm 5 m/S 705 mmHg 95%
17:00 -5°C° 0.2 mm 5 m/S 705 mmHg 95%
18:00 -4°C° 0.2 mm 4 m/S 705 mmHg 95%
19:00 -4°C° 0.2 mm 4 m/S 704 mmHg 95%
20:00 -4°C° 0.1 mm 4 m/S 704 mmHg 95%
21:00 -5°C° 0.1 mm 3 m/S 704 mmHg 95%
22:00 -5°C° 0.1 mm 3 m/S 704 mmHg 95%
23:00 -5°C° 0.1 mm 3 m/S 704 mmHg 95%

28 Februar, Sonntag

Zeit Temperatur Niederschläge Wind Luftdruck Luftfeuchtigkeit
00:00 -5°C° 0.1 mm 3 m/S 704 mmHg 95%
01:00 -5°C° 0.1 mm 3 m/S 704 mmHg 95%
02:00 -5°C° 0.1 mm 3 m/S 704 mmHg 95%
03:00 -5°C° 0.1 mm 2 m/S 704 mmHg 96%
04:00 -6°C° 0.1 mm 2 m/S 704 mmHg 96%
05:00 -6°C° 0.1 mm 2 m/S 703 mmHg 96%
06:00 -6°C° 0.1 mm 2 m/S 703 mmHg 95%
07:00 -7°C° 0.1 mm 3 m/S 703 mmHg 95%
08:00 -6°C° 0 mm 3 m/S 704 mmHg 94%
09:00 -5°C° 0 mm 3 m/S 704 mmHg 92%
10:00 -4°C° 0 mm 4 m/S 704 mmHg 91%
11:00 -4°C° 0.1 mm 4 m/S 704 mmHg 91%
12:00 -3°C° 0.1 mm 4 m/S 705 mmHg 90%
13:00 -4°C° 0.1 mm 5 m/S 705 mmHg 89%
14:00 -4°C° 0.1 mm 5 m/S 705 mmHg 90%
15:00 -5°C° 0.1 mm 5 m/S 705 mmHg 90%
16:00 -4°C° 0.1 mm 4 m/S 705 mmHg 91%
17:00 -5°C° 0.1 mm 4 m/S 705 mmHg 93%
18:00 -6°C° 0.1 mm 3 m/S 705 mmHg 94%
19:00 -6°C° 0.1 mm 2 m/S 705 mmHg 96%
20:00 -6°C° 0 mm 2 m/S 706 mmHg 96%
21:00 -6°C° 0 mm 2 m/S 706 mmHg 96%
22:00 -7°C° 0 mm 2 m/S 706 mmHg 96%
23:00 -7°C° 0.1 mm 2 m/S 707 mmHg 96%

1 März, Montag

Zeit Temperatur Niederschläge Wind Luftdruck Luftfeuchtigkeit
00:00 -7°C° 0.1 mm 2 m/S 707 mmHg 96%
01:00 -7°C° 0.1 mm 2 m/S 707 mmHg 96%
02:00 -9°C° 0.1 mm 2 m/S 707 mmHg 96%
03:00 -10°C° 0.1 mm 2 m/S 708 mmHg 95%
04:00 -13°C° 0.1 mm 2 m/S 708 mmHg 95%
05:00 -13°C° 0 mm 2 m/S 708 mmHg 95%
06:00 -14°C° 0 mm 2 m/S 709 mmHg 95%
07:00 -15°C° 0 mm 2 m/S 709 mmHg 95%
08:00 -13°C° 0 mm 2 m/S 710 mmHg 94%
09:00 -12°C° 0 mm 2 m/S 710 mmHg 94%
10:00 -9°C° 0 mm 1 m/S 711 mmHg 93%
11:00 -8°C° 0 mm 1 m/S 711 mmHg 92%
12:00 -7°C° 0 mm 1 m/S 712 mmHg 91%
13:00 -4°C° 0 mm 1 m/S 712 mmHg 90%
14:00 -4°C° 0.1 mm 1 m/S 712 mmHg 91%
15:00 -6°C° 0.1 mm 1 m/S 713 mmHg 92%
16:00 -7°C° 0.1 mm 2 m/S 713 mmHg 93%
17:00 -9°C° 0 mm 2 m/S 713 mmHg 94%
18:00 -10°C° 0 mm 2 m/S 713 mmHg 94%
19:00 -13°C° 0 mm 2 m/S 713 mmHg 95%
20:00 -13°C° 0 mm 2 m/S 713 mmHg 95%
21:00 -14°C° 0 mm 2 m/S 713 mmHg 95%
22:00 -14°C° 0 mm 2 m/S 713 mmHg 95%
23:00 -15°C° 0 mm 2 m/S 713 mmHg 95%

2 März, Dienstag

Zeit Temperatur Niederschläge Wind Luftdruck Luftfeuchtigkeit
00:00 -15°C° 0 mm 2 m/S 713 mmHg 95%
01:00 -16°C° 0 mm 2 m/S 713 mmHg 95%
02:00 -17°C° 0 mm 3 m/S 713 mmHg 95%
03:00 -17°C° 0 mm 3 m/S 713 mmHg 95%
04:00 -17°C° 0 mm 3 m/S 713 mmHg 94%
05:00 -18°C° 0 mm 3 m/S 712 mmHg 95%
06:00 -19°C° 0 mm 3 m/S 712 mmHg 95%
07:00 -21°C° 0 mm 3 m/S 712 mmHg 95%
08:00 -20°C° 0 mm 4 m/S 712 mmHg 94%
09:00 -18°C° 0 mm 4 m/S 712 mmHg 94%
10:00 -17°C° 0 mm 4 m/S 712 mmHg 93%
11:00 -17°C° 0 mm 5 m/S 712 mmHg 93%
12:00 -15°C° 0 mm 5 m/S 712 mmHg 92%
13:00 -14°C° 0 mm 5 m/S 712 mmHg 92%
14:00 -15°C° 0 mm 5 m/S 712 mmHg 92%
15:00 -17°C° 0 mm 5 m/S 711 mmHg 91%
16:00 -18°C° 0 mm 5 m/S 711 mmHg 91%
17:00 -19°C° 0 mm 5 m/S 711 mmHg 91%
18:00 -19°C° 0 mm 4 m/S 710 mmHg 92%
19:00 -20°C° 0 mm 4 m/S 710 mmHg 92%
20:00 -21°C° 0 mm 5 m/S 710 mmHg 92%
21:00 -21°C° 0 mm 5 m/S 709 mmHg 92%
22:00 -20°C° 0 mm 5 m/S 709 mmHg 92%
23:00 -20°C° 0 mm 5 m/S 709 mmHg 92%
Mehr zeigen

Wir brauchen deine Erlaubnis

Meteoprog und unser Service Anbieter werden persönliche Daten aufbewahren, so wie Cookies, Geräte Bezeichnung oder ähnliche Technologien von deinem Gerät und Prozess, so wie Persönliche Daten Inhalte und Werbungen, genauso wie social Media und den Verkehr zu analysieren.

  • Aufbewahrung und/oder Zugang zu deiner Geräte Informationen.

    Cookies, Geräte Bezeichnung oder andere Informationen, können aufbewahrt oder Zugang zu deinem Gerät erhalten, für den Grund, der oben angegeben wird.

  • Personalisierte Werbung und Inhalte, Messungen, Einblick in das Publikum und Produkt Entwicklung.

    Werbungen und Inhalte können personalisiert werden, basierend auf ein Profil. Mehr Daten können besser personalisierte Werbungen und Inhalte hinzufügen. Werbung und Inhalte können gezeigt und gemessen werden. Einblicke über das Publikum, welche die Werbung gesehen haben und den Inhalt, können abgeleitet werden. So wie Daten können genutzt werden, um es zu verbessern oder die Benutzer Erfahrung zu verbessern das System und die Software.

Wenn du “Ich stimme zu” klickst, erlaubst du uns, die Cookies zu benutzen die Geräte Bezeichnung, den Web oder ähnliche Technologien zu benutzen. Deine Settings, können in deinem Gerät bei deinem Browser geändert werden.

Für den bestimmten Zweck, berechtigten Interessen beruhen darauf, mehr als auf den Inhalt. Du kannst mehr darüber in unseren Privaten und Cookie Politik lesen.